This demonstration page uses our WeatherBlox Daily Observations layout. Learn more.

Left ArrowRight Arrow

41.86663, -103.66717

Hourly Observations for January 10, 2017

Temp ( °F °C ) Dew Point ( °F °C ) Humidity (%) Winds ( mph kmh ) Pressure ( in mb ) Visibility ( mi km ) Precip ( " mm )
12:53 am 00:53 Clear 40 4.4 30 -1.1 68 68 W 12 19 29.52 1000 10 16 0.00 0.00
1:53 am 01:53 Mostly Cloudy 40 4.4 28 -2.2 63 63 W 12 19 29.55 1001 10 16 0.00 0.00
2:53 am 02:53 Mostly Clear 41 5 27 -2.8 57 57 W 10 17 29.59 1002 10 16 0.00 0.00
3:53 am 03:53 Mostly Cloudy 37 2.8 29 -1.7 73 73 NNW 12 19 29.65 1004 10 16 0.00 0.00
4:53 am 04:53 Clear 33 0.6 26 -3.3 75 75 WNW 12 19 29.71 1006 10 16 0.00 0.00
5:53 am 05:53 Clear 30 -1.1 24 -4.4 79 79 W 8 13 29.74 1007 10 16 0.00 0.00
6:53 am 06:53 Clear 24 -4.4 21 -6.1 88 88 Calm 29.75 1008 10 16 0.00 0.00
7:53 am 07:53 Sunny 26 -3.3 21 -6.1 81 81 NNW 3 6 29.76 1008 10 16 0.00 0.00
8:53 am 08:53 Mostly Sunny 30 -1.1 24 -4.4 79 79 E 5 7 29.75 1008 10 16 0.00 0.00
9:53 am 09:53 Sunny 39 3.9 22 -5.6 50 50 W 9 15 29.73 1007 10 16 0.00 0.00
10:53 am 10:53 Sunny 42 5.6 21 -6.1 43 43 WNW 8 13 29.70 1006 10 16 0.00 0.00
11:53 am 11:53 Sunny 41 5 21 -6.1 45 45 WSW 5 7 29.63 1004 10 16 0.00 0.00
12:53 pm 12:53 Mostly Cloudy 45 7.2 21 -6.1 39 39 WNW 5 7 29.61 1003 10 16 0.00 0.00
1:53 pm 13:53 Mostly Sunny 47 8.3 25 -3.9 42 42 W 20 31 29.56 1001 10 16 0.00 0.00
2:53 pm 14:53 Mostly Sunny 47 8.3 24 -4.4 41 41 W 24 39 29.57 1001 10 16 0.00 0.00
3:53 pm 15:53 Sunny 44 6.7 27 -2.8 51 51 W 22 35 29.60 1002 10 16 0.00 0.00
4:53 pm 16:53 Clear 42 5.6 27 -2.8 55 55 W 12 19 29.63 1003 10 16 0.00 0.00
5:53 pm 17:53 Clear 41 5 25 -3.9 53 53 W 12 19 29.63 1003 10 16 0.00 0.00
6:53 pm 18:53 Clear 40 4.4 26 -3.3 58 58 SW 13 20 29.64 1004 10 16 0.00 0.00
7:53 pm 19:53 Clear 40 4.4 25 -3.9 55 55 SW 9 15 29.62 1003 10 16 0.00 0.00
8:53 pm 20:53 Clear 42 5.6 24 -4.4 49 49 Calm 29.60 1002 10 16 0.00 0.00
9:53 pm 21:53 Clear 45 7.2 24 -4.4 44 44 WSW 13 20 29.55 1001 10 16 0.00 0.00
10:53 pm 22:53 Clear 43 6.1 23 -5 45 45 WNW 5 7 29.51 999 10 16 0.00 0.00
11:53 pm 23:53 Clear 47 8.3 24 -4.4 41 41 WSW 16 26 29.51 999 10 16 0.00 0.00

Powered by AerisWeather